Tracking 18852 objects as of 24-Nov-2017
HD Live streaming from Space Station
objects crossing your sky now

FENGYUN 1C DEB

Track FENGYUN 1C DEB now!
10-day predictions


NORAD ID: 30249
Int'l Code: 1999-025XJ
Perigee: 805.1 km
Apogee: 881.4 km
Inclination: 99.0 °
Period: 101.6 minutes
Semi major axis: 7214 km
RCS: 0.0363 m2 (small)
Launch date: May 10, 1999
Source: People's Republic of China (PRC)
Launch site: Taiyaun Space Center, China (TSC)

Note: This is SATELLITE DEBRIS
aabbcc
Your satellite tracking list
Your tracking list is empty




NASA's NSSDC Master Catalog

Two Line Element Set (TLE):
1 30249U 99025XJ  17327.74651872  .00001322  00000-0  67372-3 0  9999
2 30249  98.9823  29.1409 0052910 248.7606 237.5343 14.16828006558207
Source of the keplerian elements: AFSPC